Lid_Strength_Index
7 7 7 6 5 3 2 3 3 3 3 4 5 6 6 7 8 9 9 10 10 11
8 6 7 6 5 2 2 3 3 3 4 4 5 6 7 8 8 9 9 10 11 13
8 6 6 6 5 3 7 8 4 4 5 5 6 6 7 8 10 12 12 13 15 15
8 6 5 6 6 7 8 11 13 13 12 12 13 13 15 15 15 15 16 15 15 16
7 6 7 10 11 11 13 14 14 15 15 15 15 15 15 16 16 16 16 16 16 17
10 10 11 11 12 12 13 14 15 15 16 15 15 15 15 16 16 16 17 17 17 17
11 11 11 12 12 13 13 14 14 16 15 15 15 16 16 16 17 17 17 17 17 18
12 12 12 13 13 14 14 14 14 15 16 16 15 16 17 18 18 18 18 18 17 18
13 13 13 15 15 15 15 15 15 15 15 16 16 15 15 16 17 17 18 18 18 17
13 14 14 14 15 16 16 15 15 16 16 16 16 15 15 16 17 18 18 18 18 18
14 15 15 16 16 15 17 17 17 17 17 17 16 15 16 17 18 18 18 18 19 19
16 15 16 16 16 16 16 16 17 16 17 17 17 16 16 17 18 18 18 18 18 19
16 16 16 16 16 17 17 17 17 17 17 17 18 16 16 17 18 19 19 19 19 18
16 16 16 17 16 17 17 17 17 18 18 18 18 17 16 16 18 18 19 19 19 17